Weather History for MINANGKABAU INT, Indonesia

Change the Weather History Date:

Sunday, May 25, 2014

  Actual Average Record
Temperature  
Mean Temperature 82 °F -  
Max Temperature 87 °F - - ()
Min Temperature 77 °F - - ()
Cooling Degree Days 17    
Growing Degree Days 32 (Base 50)    
Moisture  
Dew Point 77 °F    
Average Humidity 79    
Maximum Humidity 100    
Minimum Humidity 70    
Precipitation  
Precipitation 0.00 in - - ()
Sea Level Pressure  
Sea Level Pressure 29.79 in    
Wind  
Wind Speed 4 mph ()    
Max Wind Speed 8 mph    
Max Gust Speed -    
Visibility 5.4 miles    
Events Rain    
T = Trace of Precipitation, MM = Missing Value Source: Averaged Metar Reports

Daily Weather History Graph

Daily Weather History Graph

Search for Another Location

Airport:

Trip Planner

Search our weather history database for the weather conditions in past years. The results will help you decide how hot, cold, wet, or windy it might be!

Date:

Astronomy

May. 25, 2014 Rise Set
Actual Time 6:13 AM WIB 6:18 PM WIB
Civil Twilight 5:51 AM WIB 6:40 PM WIB
Nautical Twilight 5:25 AM WIB 7:06 PM WIB
Astronomical Twilight 4:59 AM WIB 7:31 PM WIB
Moon 3:07 AM WIB (5/25) 3:29 PM WIB (5/25)
Length of Visible Light 12h 49m
Length of Day
12h 04m
Waning Crescent, 14% of the Moon is Illuminated
May 25
Waning Crescent
May 29
New
Jun 6
First Quarter
Jun 13
Full
Jun 20
Last Quarter

Hourly Weather History & Observations

Time (WIB) Temp. Heat Index Dew Point Humidity Pressure Visibility Wind Dir Wind Speed Gust Speed Precip Events Conditions
6:00 AM 77.0 °F - 75.2 °F 94% 29.80 in 2.5 mi ENE 3.5 mph - N/A   Haze
6:30 AM 77.0 °F - 75.2 °F 94% 29.80 in 3.1 mi Variable 3.5 mph - N/A   Haze
7:00 AM 77.0 °F - 77.0 °F 100% 29.83 in 5.0 mi NNE 3.5 mph - N/A   Partly Cloudy
7:30 AM 78.8 °F - 77.0 °F 94% 29.83 in 5.0 mi North 2.3 mph - N/A   Partly Cloudy
8:00 AM 82.4 °F 90.9 °F 77.0 °F 84% 29.83 in 5.0 mi North 4.6 mph - N/A   Partly Cloudy
8:30 AM 84.2 °F 94.1 °F 77.0 °F 79% 29.86 in 5.0 mi North 6.9 mph - N/A   Partly Cloudy
9:00 AM 86.0 °F 96.9 °F 77.0 °F 74% 29.86 in 6.2 mi North 5.8 mph - N/A   Partly Cloudy
9:30 AM 86.0 °F 96.9 °F 77.0 °F 74% 29.86 in 6.2 mi WSW 4.6 mph - N/A   Partly Cloudy
10:00 AM 86.0 °F 96.9 °F 77.0 °F 74% 29.86 in 6.2 mi Variable 3.5 mph - N/A   Partly Cloudy
10:30 AM 86.0 °F 96.9 °F 77.0 °F 74% 29.86 in 6.2 mi SSW 4.6 mph - N/A   Partly Cloudy
11:30 AM 87.8 °F 102.5 °F 78.8 °F 75% 29.83 in 6.2 mi WSW 4.6 mph - N/A   Partly Cloudy
12:00 PM 87.8 °F 102.5 °F 78.8 °F 75% 29.80 in 6.2 mi SW 5.8 mph - N/A   Partly Cloudy
12:30 PM 87.8 °F 99.7 °F 77.0 °F 70% 29.80 in 6.2 mi SW 5.8 mph - N/A   Partly Cloudy
1:00 PM 87.8 °F 99.7 °F 77.0 °F 70% 29.77 in 6.2 mi SSW 8.1 mph - N/A   Partly Cloudy
1:30 PM 87.8 °F 99.7 °F 77.0 °F 70% 29.77 in 6.2 mi SW 6.9 mph - N/A   Partly Cloudy
2:00 PM 87.8 °F 99.7 °F 77.0 °F 70% 29.77 in 6.2 mi SSW 8.1 mph - N/A   Partly Cloudy
2:30 PM 87.8 °F 99.7 °F 77.0 °F 70% 29.74 in 6.2 mi SSW 8.1 mph - N/A   Partly Cloudy
3:00 PM 87.8 °F 99.7 °F 77.0 °F 70% 29.74 in 6.2 mi SSW 8.1 mph - N/A   Partly Cloudy
3:30 PM 87.8 °F 99.7 °F 77.0 °F 70% 29.74 in 6.2 mi SSW 6.9 mph - N/A   Partly Cloudy
4:00 PM 87.8 °F 99.7 °F 77.0 °F 70% 29.71 in 6.2 mi SSW 6.9 mph - N/A   Partly Cloudy
4:30 PM 86.0 °F 96.9 °F 77.0 °F 74% 29.71 in 6.2 mi SSW 6.9 mph - N/A   Scattered Clouds
5:00 PM 86.0 °F 96.9 °F 77.0 °F 74% 29.71 in 6.2 mi SSW 4.6 mph - N/A   Mostly Cloudy
5:30 PM 86.0 °F 96.9 °F 77.0 °F 74% 29.74 in 5.0 mi SSW 4.6 mph - N/A   Mostly Cloudy
6:00 PM 86.0 °F 96.9 °F 77.0 °F 74% 29.74 in 5.0 mi SSW 5.8 mph - N/A   Mostly Cloudy
6:30 PM 86.0 °F 99.3 °F 78.8 °F 79% 29.77 in 5.0 mi South 4.6 mph - N/A   Mostly Cloudy
7:00 PM 84.2 °F 96.1 °F 78.8 °F 84% 29.77 in 5.0 mi South 5.8 mph - N/A   Mostly Cloudy
7:30 PM 84.2 °F 94.1 °F 77.0 °F 79% 29.77 in 5.0 mi South 6.9 mph - N/A   Scattered Clouds
8:30 PM 82.4 °F 92.4 °F 78.8 °F 89% 29.80 in 4.3 mi ESE 4.6 mph - N/A Rain Rain
9:00 PM 82.4 °F 92.4 °F 78.8 °F 89% 29.80 in 5.0 mi Variable 4.6 mph - N/A   Scattered Clouds
9:30 PM 82.4 °F 92.4 °F 78.8 °F 89% 29.83 in 5.0 mi Variable 2.3 mph - N/A   Scattered Clouds
10:00 PM 82.4 °F 92.4 °F 78.8 °F 89% 29.83 in 5.0 mi NNE 4.6 mph - N/A   Scattered Clouds
10:30 PM 80.6 °F 87.1 °F 77.0 °F 89% 29.83 in 5.0 mi North 2.3 mph - N/A   Scattered Clouds